Santiago, Chile

11:44 AM -03 on October 18, 2018 (GMT -0300)
Arturo Merino Benitez International

Weather History for SCEL - February, 2018

Change the Weather History Date:

Tuesday, February 27, 2018

  Actual Average Record
Temperature  
Mean Temperature 67 °F -  
Max Temperature 80 °F 78 °F 95 °F (1997)
Min Temperature 54 °F 49 °F 50 °F (2002)
Cooling Degree Days 2    
Growing Degree Days 17 (Base 50)    
Moisture  
Dew Point 54 °F    
Average Humidity 69    
Maximum Humidity 94    
Minimum Humidity 38    
Precipitation  
Precipitation 0.00 in - - ()
Sea Level Pressure  
Sea Level Pressure 30.00 in    
Wind  
Wind Speed 7 mph ()    
Max Wind Speed 17 mph    
Max Gust Speed -    
Visibility 4.5 miles    
Events      
Averages and records for this station are not official NWS values.
T = Trace of Precipitation, MM = Missing Value Source: Averaged Metar Reports

Daily Weather History Graph

Daily Weather History Graph

Search for Another Location

Airport or City:

Astronomy

Feb. 27, 2018 Rise Set
Actual Time 7:29 AM -03 8:21 PM -03
Civil Twilight 7:04 AM -03 8:46 PM -03
Nautical Twilight 6:34 AM -03 9:16 PM -03
Astronomical Twilight 6:03 AM -03 9:47 PM -03
Moon 6:52 PM -03 (2/27) 4:38 AM -03 (2/27)
Length of Visible Light 13h 42m
Length of Day
12h 51m
Waxing Gibbous, 92% of the Moon is Illuminated
Feb 27
Waxing Gibbous
Mar 1
Full
Mar 9
Last Quarter
Mar 17
New
Mar 24
First Quarter

Hourly Weather History & Observations

Time (-03) Temp. Dew Point Humidity Pressure Visibility Wind Dir Wind Speed Gust Speed Precip Events Conditions
3:00 AM 57 °F 53 °F 83% 30.01 in 6 mi SSE 8.1 mph - -   Partly Cloudy
4:00 AM 57.2 °F 53.6 °F 88% 30.01 in - SSE 4.6 mph - N/A   Clear
5:00 AM 55.4 °F 53.6 °F 94% 29.98 in - SSE 4.6 mph - N/A   Clear
5:10 AM 55.4 °F 53.6 °F 94% 29.98 in 5.0 mi South 6.9 mph - N/A   Partly Cloudy
6:00 AM 55.4 °F 53.6 °F 94% 30.01 in 1.9 mi SSE 8.1 mph - N/A   Mostly Cloudy
7:00 AM 57.2 °F 53.6 °F 88% 30.01 in 4.3 mi SSE 6.9 mph - N/A   Mostly Cloudy
8:00 AM 57.2 °F 53.6 °F 88% 30.04 in 3.7 mi SE 5.8 mph - N/A   Overcast
9:00 AM 57 °F 54 °F 85% 30.04 in 4 mi SE 4.6 mph - -   Mist
9:00 AM 57.2 °F 53.6 °F 88% 30.04 in 3.7 mi SE 4.6 mph - N/A   Overcast
10:00 AM 57.2 °F 53.6 °F 88% 30.04 in 3.7 mi ESE 4.6 mph - N/A   Overcast
11:00 AM 59.0 °F 53.6 °F 82% 30.04 in 3.7 mi SE 5.8 mph - N/A   Overcast
12:00 PM 62.6 °F 53.6 °F 72% 30.04 in 5.0 mi South 6.9 mph - N/A   Scattered Clouds
1:00 PM 68.0 °F 55.4 °F 64% 30.01 in 5.0 mi South 8.1 mph - N/A   Unknown
2:00 PM 71.6 °F 53.6 °F 53% 30.01 in - SSE 9.2 mph - N/A   Clear
3:00 PM 75 °F 54 °F 38% 29.94 in 6 mi SSE 13.8 mph - -   Partly Cloudy
3:00 PM 75.2 °F 55.4 °F 50% 29.98 in - SSE 13.8 mph - N/A   Clear
4:00 PM 78.8 °F 53.6 °F 42% 29.98 in - SSE 12.7 mph - N/A   Clear
5:00 PM 78.8 °F 51.8 °F 39% 29.95 in - South 17.3 mph - N/A   Clear
6:00 PM 77.0 °F 50.0 °F 39% 29.95 in - SSW 13.8 mph - N/A   Clear
7:00 PM 75.2 °F 53.6 °F 47% 29.95 in - SW 13.8 mph - N/A   Clear
8:00 PM 71.6 °F 53.6 °F 53% 29.98 in - SSW 13.8 mph - N/A   Clear
9:00 PM 68 °F 53 °F 50% 29.96 in 6 mi SSW 9.2 mph - -   Partly Cloudy
9:00 PM 68.0 °F 53.6 °F 60% 30.01 in - SSW 9.2 mph - N/A   Clear
10:00 PM 62.6 °F 53.6 °F 72% 30.01 in - SSE 10.4 mph - N/A   Clear
11:00 PM 60.8 °F 53.6 °F 77% 30.01 in - SSE 10.4 mph - N/A   Clear